Find Starlink 6034

NORAD ID: 56324 Int'l Des: 2023-058 Owner: SPXS Country: US Constellation: starlink operational
LEOCIRCULARRETROGRADESSO

現在のビュー

3D地球を読み込み中...

About Starlink 6034

Starlink 6034 (NORAD 56324) is a starlink constellation satellite (v1.5) launched Apr 27, 2023 by SPXS of US. It operates in LEO, CIRCULAR, RETROGRADE, SSO orbit with a mass of 300.00 kg.

次回通過

Passes for default location (London). Set your location on the main map for personalized predictions.

高度履歴

Loading altitude history...

軌道要素

1 56324U 23058H 26265.53918538 .00000508 00000-0 18056-4 0 9998
2 56324 97.2841 262.2061 0001600 88.1483 271.9943 15.33437420187598
Epoch: Sep 22, 2026 • Age: 13 hours

現在のステータス

高度 477.4 km
遠地点 / 近地点 N/A
速度 7.63 km/s
衛星直下点 75.39°N, 81.25°E
打ち上げ日 Apr 27, 2023
運用期間 3.4 years
タイプ internet

技術仕様

分類 Payload
質量 300.00 kg
乾燥質量 260.00 kg
長さ 0.20 m
スパン 9.00 m
形状 ? Box + pan
製造者 SPXS
バスタイプ Starlink
フェーズステータス In Orbit
所有者/国 SPXS/US

Most Searched